Theta_e
298 299 299 300 300 300 301 302 303 305 306 306 311 312 311 312 317 322 328 327 327 329 331 330 327 324 319 316 313 309 307 305 303 304 304 303 302 302
298 298 299 299 300 300 301 301 302 304 308 306 309 307 308 308 317 321 325 327 326 329 327 324 318 314 312 310 307 305 304 304 303 302 300 300 300 300
298 298 299 299 300 300 301 301 303 305 307 306 305 305 308 310 314 318 321 319 316 314 313 311 309 307 306 305 304 302 301 299 299 298 298 299 299 299
298 299 299 300 300 300 301 301 301 304 305 306 304 301 302 305 306 307 307 307 307 306 305 303 302 301 301 300 299 298 298 297 297 297 297 297 298 298
298 299 299 300 300 300 300 300 301 302 304 306 299 298 299 302 301 302 302 301 301 301 301 300 299 300 299 298 298 298 297 297 297 296 296 296 296 297
298 298 299 299 299 299 299 300 301 303 304 302 298 294 295 295 295 294 292 293 295 297 298 298 297 298 298 297 297 296 296 296 296 296 296 296 296 296
298 298 299 299 300 300 300 302 304 305 302 299 295 292 291 291 291 290 290 290 290 291 291 293 294 294 294 294 294 295 296 295 295 295 295 295 295 295
299 300 299 300 301 301 302 304 306 301 299 297 295 293 290 289 290 290 290 291 290 290 291 290 292 292 293 294 294 294 294 294 294 294 294 294 294 295
299 299 300 300 301 302 305 306 306 303 298 296 292 290 289 289 289 289 288 288 288 289 290 290 290 291 292 292 293 293 293 293 296 295 295 295 295 295
300 300 300 302 303 300 300 300 296 294 291 290 289 289 291 292 291 288 288 288 288 289 289 290 290 290 290 291 292 292 292 293 293 294 294 293 293 294
301 302 303 304 300 297 294 293 291 291 292 291 291 291 290 290 290 289 289 289 289 289 289 290 290 290 290 290 289 290 291 291 291 292 292 292 292 293
302 304 302 301 299 296 294 293 292 292 292 291 291 290 289 290 289 288 289 289 289 289 289 290 290 291 291 290 290 290 291 290 290 290 290 291 291 292
294 294 296 295 292 290 289 289 289 289 288 287 287 287 287 287 288 289 289 290 290 290 287 289 290 291 291 291 290 290 290 290 291 291 291 290 291 291
294 294 293 293 292 292 291 290 289 287 287 288 288 288 288 287 288 288 288 288 288 288 289 290 290 291 291 291 290 289 290 290 290 290 291 291 291 291
293 293 292 291 290 289 288 288 288 288 288 288 288 288 288 288 288 289 288 288 288 288 289 289 290 290 290 290 290 290 290 290 290 290 291 291 291 291
289 289 288 288 288 288 287 288 288 288 288 289 288 288 289 289 289 289 289 289 289 288 288 288 289 289 289 289 290 290 289 289 289 290 290 291 291 291
289 289 289 289 289 288 288 288 289 289 289 289 289 289 288 288 288 289 289 289 288 288 288 288 287 287 287 288 288 287 287 288 289 290 290 290 291 290
289 289 289 289 288 288 288 288 288 288 289 289 288 288 288 288 288 288 288 288 288 288 288 288 288 289 289 287 287 287 287 288 290 290 290 290 290 289
289 288 288 288 288 288 288 288 288 288 288 288 288 288 288 288 288 288 288 288 288 288 288 288 289 289 289 288 287 286 287 287 288 290 290 289 288 288
288 288 288 288 288 288 288 288 288 288 288 288 288 288 288 288 288 288 288 288 288 288 288 288 288 288 287 287 287 286 286 287 287 288 288 289 288 288
288 288 288 288 288 288 288 288 288 288 288 288 288 288 288 288 288 288 287 287 288 288 288 287 286 287 287 288 288 288 287 287 287 287 287 288 289 288
288 288 288 288 288 288 288 288 288 288 288 288 288 288 288 288 288 288 287 287 287 287 287 287 287 287 288 288 288 288 287 287 287 287 287 287 286 287
288 288 288 288 288 288 289 289 288 288 288 288 288 288 288 288 288 288 287 287 287 287 287 287 287 287 288 288 288 288 288 289 288 289 288 287 287 287
Wind_Speed
25 25 25 25 23 22 21 21 16 12 13 18 8 11 14 22 28 27 27 27 25 23 30 35 36 44 36 32 28 22 19 15 11 9 5 4 6 10
26 25 25 25 24 22 19 21 24 19 13 21 16 10 20 28 24 28 26 21 20 30 36 43 40 35 32 29 26 24 20 17 12 9 6 6 8 10
26 25 23 23 23 22 20 22 21 23 11 18 6 16 13 12 12 24 25 33 34 43 41 36 33 31 29 28 25 23 20 15 11 9 7 7 8 12
24 23 23 22 22 22 22 24 23 21 17 12 1 3 8 5 13 38 33 43 40 38 38 36 32 27 25 25 24 22 19 17 12 9 8 8 9 11
22 22 22 22 22 23 22 22 21 23 21 14 3 4 6 10 23 30 32 42 40 38 36 34 32 27 25 21 23 20 18 15 14 11 9 10 9 12
20 20 22 21 23 23 21 22 22 21 20 12 13 6 13 14 18 28 33 30 35 32 30 28 29 27 25 21 20 18 17 13 14 11 11 11 12 14
18 19 20 22 24 23 21 22 22 13 18 15 15 11 10 10 9 20 31 33 35 31 32 34 32 27 22 18 15 13 16 14 15 12 11 12 11 13
16 16 17 19 21 24 23 25 16 26 19 16 15 15 18 18 19 26 22 25 8 25 30 28 27 26 19 20 15 13 14 16 15 13 10 13 13 14
16 15 14 15 15 15 19 17 16 12 20 26 25 22 26 20 23 28 24 24 19 22 22 19 17 20 22 19 14 14 12 14 17 14 13 14 14 15
18 16 15 12 12 12 19 31 29 25 28 33 38 39 40 30 30 30 30 29 26 19 10 12 14 17 12 14 17 15 13 13 15 15 15 16 17 15
15 13 12 8 25 29 37 35 33 30 33 36 37 33 28 30 35 34 22 21 14 12 15 12 12 14 13 12 11 14 14 14 13 14 16 18 20 17
33 10 16 27 31 36 40 35 31 27 31 36 36 34 30 25 22 22 18 19 18 10 11 10 12 6 5 8 9 10 10 12 13 12 14 19 22 20
37 37 37 37 41 44 42 38 37 39 35 34 31 29 25 21 17 15 12 9 11 14 8 6 5 5 7 6 8 11 11 12 12 13 15 17 20 21
36 37 40 45 45 42 40 36 35 33 29 27 26 24 22 20 18 18 18 19 18 15 10 9 8 8 8 7 6 8 10 12 13 14 15 17 18 21
42 44 44 43 41 38 34 32 28 28 27 25 24 24 22 22 22 23 24 24 23 20 18 15 13 13 11 11 9 11 6 11 14 14 13 15 17 20
39 41 40 39 36 34 31 30 29 27 26 26 24 22 21 20 20 19 20 19 21 21 20 17 15 14 14 12 12 12 12 9 13 15 14 13 15 22
32 32 32 31 31 29 28 26 25 24 25 23 23 22 21 20 19 16 16 16 17 15 14 16 17 20 18 13 11 11 10 11 13 15 15 13 15 23
33 30 28 28 27 26 26 25 24 24 22 21 21 20 19 18 17 17 16 15 14 12 11 9 7 7 10 18 18 12 12 13 15 14 14 11 14 22
32 28 27 26 25 24 23 22 21 20 19 19 19 18 17 17 16 16 16 16 15 14 13 10 9 8 6 6 11 20 13 14 15 13 12 11 14 19
28 26 25 24 23 22 21 21 20 19 19 19 18 17 16 16 16 15 14 13 13 13 13 13 13 12 11 6 4 8 18 15 18 16 15 13 14 19
25 24 23 22 21 21 20 20 20 19 18 18 17 16 16 16 16 16 16 14 13 13 14 13 10 8 6 5 9 11 11 14 17 22 23 10 12 17
22 22 21 20 20 19 18 17 18 18 17 17 17 16 15 15 15 14 14 14 14 13 13 12 11 11 10 10 10 11 11 14 18 19 19 20 12 8
20 20 19 18 18 17 17 17 17 17 16 16 15 15 13 13 13 13 13 14 14 13 13 12 10 7 10 12 12 10 12 13 12 15 22 24 24 22
Wind_Direction
247 246 246 249 255 258 259 260 265 281 280 285 284 255 295 314 281 264 223 223 227 225 224 197 172 160 153 154 154 147 144 136 136 123 110 55 348 334
244 245 243 244 249 253 254 260 262 260 270 270 290 311 306 303 278 249 235 211 214 200 167 157 144 139 145 145 142 135 134 128 127 111 79 40 352 349
240 242 243 243 246 249 248 254 258 259 262 273 290 312 325 318 120 129 140 123 117 125 127 124 126 129 134 130 128 126 122 117 107 97 81 53 11 354
240 239 241 242 246 251 256 261 260 257 260 272 240 58 60 73 95 107 105 111 107 107 110 114 114 117 120 122 119 114 114 107 99 91 75 54 26 346
236 236 239 241 249 252 254 256 255 250 245 242 108 95 90 97 90 95 94 96 100 106 108 111 111 109 111 113 110 105 102 97 93 70 48 42 21 351
241 244 243 244 245 250 249 249 247 239 239 172 131 94 94 87 94 101 83 88 98 100 102 107 111 109 101 94 94 88 91 84 85 66 45 36 17 348
242 242 241 240 243 243 240 244 238 220 175 159 130 120 85 95 94 102 102 92 85 92 93 95 99 92 89 86 87 84 80 75 65 50 27 19 3 348
230 234 236 238 236 238 239 247 232 159 164 147 141 123 105 108 111 103 106 103 97 95 93 87 94 91 87 87 86 78 66 62 52 45 29 23 11 360
234 236 238 240 238 239 253 242 207 170 149 148 130 123 116 110 100 92 86 90 92 100 93 84 75 73 74 75 74 71 60 59 43 45 33 22 9 355
233 239 240 242 234 106 111 108 102 104 109 113 111 113 118 123 120 116 108 101 98 90 90 87 88 81 76 73 68 66 63 56 45 39 26 16 1 347
216 216 221 210 136 123 104 99 100 109 113 114 118 116 116 119 120 114 107 111 106 85 90 90 92 97 84 68 56 55 55 49 40 34 23 15 5 358
69 145 114 121 122 112 108 109 100 101 102 98 95 94 95 94 96 100 113 117 121 104 107 105 129 125 90 65 57 46 40 31 23 26 19 14 11 9
74 75 84 95 93 92 93 92 95 97 92 90 90 90 91 97 103 106 105 104 104 97 119 124 126 89 83 111 61 40 33 21 15 11 7 4 8 9
84 89 91 88 90 91 94 96 96 98 99 98 94 89 88 89 90 90 89 86 86 91 90 100 92 86 96 79 41 20 30 24 17 9 4 2 4 1
81 85 83 83 85 85 88 91 88 89 91 90 89 90 93 98 97 91 85 83 80 76 73 74 75 75 77 74 64 41 4 20 14 6 2 4 4 358
80 80 82 83 82 83 79 74 73 77 81 85 88 89 90 87 84 84 85 84 82 74 67 68 70 70 70 62 57 47 33 24 6 6 3 7 8 9
83 79 77 75 75 74 74 74 76 77 77 78 80 80 78 77 75 79 85 86 82 77 69 66 67 68 61 54 51 35 20 8 7 5 7 9 12 19
74 72 70 70 71 71 71 70 68 69 70 73 74 76 77 79 81 79 80 81 82 81 83 82 83 97 80 58 46 29 21 8 2 7 11 11 8 19
67 69 71 71 72 72 72 71 72 72 75 75 77 78 80 80 80 81 81 81 81 81 74 70 64 63 75 68 45 29 17 8 360 11 18 20 4 7
66 69 70 70 70 71 71 72 71 70 70 71 71 71 73 75 76 77 77 81 84 83 77 69 65 62 66 57 33 38 28 30 29 18 12 20 28 37
65 67 68 69 70 70 69 68 67 66 67 69 69 70 71 74 75 78 79 77 80 77 75 66 56 54 62 69 56 39 30 26 45 33 22 16 14 20
65 67 67 68 68 67 67 68 69 67 67 68 69 70 71 73 74 76 76 76 74 75 73 67 62 61 63 60 51 33 18 40 50 46 50 46 37 5
65 66 65 65 63 63 65 66 67 66 66 69 72 73 74 77 77 77 77 74 75 73 72 72 70 67 57 57 55 37 26 26 25 39 56 61 50 41